Location: ??????????
(44.2167°N, 135.5333°E)
Time: 14:15:52
(UTC+00:00)

Cosmos 2344 - Pass Details

Date: 15 June 2025
Orbit: 1199 x 3043 km, 63.3° (Epoch: 15 July)

Event Time Altitude Azimuth Distance (km) Brightness Sun altitude
Rises 14:55:53 0° 319° (NW) 4,360 7.1 -22.4°
Reaches altitude 10° 14:58:30 10° 314° (NW) 3,511 6.5 -22.4°
Maximum altitude 15:06:44 53° 241° (WSW) 2,044 4.4 -22.4°
Enters shadow 15:11:49 32° 185° (S) 2,936 4.8 -22.4°
